{"data":{"norad_id":37875,"intl_designator":"2011-066B","name":"YAOGAN-12","alt_names":[],"object_type":"PAYLOAD","status":"ACTIVE","operator":null,"country":"PRC","launch_date":"2011-11-09","launch_site_code":"TAISC","launch_vehicle":null,"mission":null,"orbit_class":"UNKNOWN","rcs_meters":5.7479,"size_class":null,"mass_kg":null,"dimensions":null,"purposes":[],"wikipedia_slug":null,"has_3d_model":false,"image_url":null,"decayed_at":null,"tle_current":{"epoch":"2026-05-25T04:34:36.628608Z","epoch_age_seconds":61753,"freshness":"FRESH","line1":"1 37875U 11066B   26145.19070172  .00004580  00000+0  17928-3 0  9995","line2":"2 37875  97.1160 184.8436 0008434 314.6364  45.4187 15.26256192808538","mean_motion":15.26256192,"eccentricity":0.0008434,"inclination_deg":97.116,"raan_deg":184.8436,"arg_perigee_deg":314.6364,"mean_anomaly_deg":45.4187,"bstar":0.00017928,"rev_number":80853,"period_min":94.348511576751,"perigee_km":481.2258483181,"apogee_km":492.80598826067,"semimajor_km":6865.1529182894,"source":"CELESTRAK","updated_at":"2026-05-25T13:37:55.270764Z"}}}